Retour au catalogue

COSMOS 717

ActifMilitaireLEO
NORAD 7684·PAYLOAD·🇷🇺 Russia

Lancé Feb 28, 1975 depuis Plesetsk Cosmodrome

Loading…

Prochains Passages (prochaines 24 heures)

TLE

FraisSource: Space-Track

Époque: Sep 14, 2026, 12:48 UTC

1 07684U 75016G   26257.53389162 -.00000020  00000-0 -32833-4 0  9990
2 07684  74.0007 276.8761 0036178 250.7313 183.3960 12.39835738332915

Suivez COSMOS 717 en temps réel avec AllMySat

Download on the App Store